[[{"header":{"parameterUnit":"m.s-1","parameterCategory":1,"la1":30.2991,"la2":30.254,"lo1":-89.0895,"lo2":-89.0444,"dy":0.0017,"dx":0.0017,"nx":28,"ny":28,"refTime":"2024-06-09T03:00:00:Z","depth":0,"parameterNumber":2,"parameterNumberName":"U-component_of_WINDS"},"data":[0,0,0,0,0,0,0,0,0,0,0,0,0,0,0,0,0,0,0,0,0,0,0,0,0,0,0,0,0,0,0,0,0,0,0,0,0,0,0,0,0,0,0,0,0,0,0,0,0,0,0,0,0,0,0,0,0,0,4.0008,4.0009,0,4.0087,4.0088,4.0089,4.0007,4.0004,4.0001,3.9998,4.0078,4.0083,4.0088,0,0,0,0,0,0,0,0,0,0,0,0,0,3.9784,3.9788,4.0008,4.0009,4.001,4.0087,4.0088,4.0089,4.0007,4.0004,4.0,3.9996,4.0076,4.0082,4.0088,0,0,0,0,0,0,0,0,0,0,0,0,0,3.9874,3.979,4.0008,3.9979,3.9977,4.0086,4.0088,4.0089,4.0008,4.0004,3.9999,3.9994,4.0074,4.0082,4.0089,4.0231,0,0,4.0113,4.0116,0,0,0,0,0,0,0,0,3.9869,3.9882,3.9982,3.9981,3.9979,4.0032,4.0038,4.0137,4.0009,3.9996,3.9997,3.9992,4.0067,4.0074,4.01,4.0235,4.0239,4.0113,4.0118,4.0121,4.0123,0,0,0,0,0,0,0,3.9863,3.9878,4.0039,3.9983,3.9982,3.996,3.9968,4.0056,4.0057,3.9997,3.9991,4.0002,4.0065,4.0093,4.0101,4.024,4.0113,4.012,4.0125,4.0127,4.0491,4.0496,0,0,0,0,0,0,3.986,3.9874,4.0037,4.0041,3.9911,3.9968,3.9977,4.002,4.0056,4.0057,4.0006,3.9998,4.0082,4.0092,4.0104,4.0269,4.0121,4.0128,4.0133,4.0486,4.0492,4.0498,0,0,0,0,0,0,3.9855,3.9875,4.0033,3.9956,3.9974,3.9977,4.0026,4.0024,4.0051,4.0062,4.0062,4.0034,4.0078,4.0093,4.0199,4.0271,4.0132,4.0139,4.048,4.0488,4.0495,4.0603,0,0,0,0,0,0,3.9849,3.9874,3.9929,3.9958,3.9979,4.0129,4.0031,4.0029,4.0065,4.0055,4.0089,4.009,4.0076,4.0188,4.0207,4.0279,4.0145,4.0474,4.0484,4.0493,4.0594,4.0614,4.0631,0,0,0,0,0,3.9842,3.9958,3.9932,3.9953,4.0048,4.0133,4.0145,4.0127,4.0071,4.0125,4.0132,4.0089,4.026,4.02,4.022,4.0295,4.0469,4.0481,4.0492,4.0585,4.061,4.0631,0,0,0,0,0,0,3.9938,3.9961,3.9933,4.0062,4.0096,4.012,4.0188,4.0154,4.0205,4.0194,4.0168,4.0177,4.0289,4.0303,4.0235,4.0433,4.0355,4.0371,4.0419,4.0443,4.0462,4.0455,4.0151,0,0,0,0,0,3.9974,4.0042,4.0058,4.017,4.0189,4.0186,4.0222,4.0205,4.0239,4.0253,4.0268,4.0302,4.0363,4.0404,4.0461,4.0595,4.06,4.0657,4.0676,4.0691,4.0705,4.0773,4.0797,4.0535,4.0535,4.0535,0,0,4.005,4.007,4.0115,4.019,4.0215,4.0284,4.0198,4.0277,4.0327,4.0265,4.0365,4.0377,4.0414,4.0534,4.0587,4.0549,4.0778,4.0706,4.0718,4.0723,4.0787,4.0812,4.0834,4.0543,4.0542,4.054,0,0,4.0222,4.0246,4.034,4.0366,4.0403,4.04,4.0422,4.045,4.0455,4.0556,4.0509,4.0569,4.0676,4.0703,4.073,4.091,4.087,4.0929,4.1027,4.1094,4.1114,4.1132,4.1193,4.1215,4.0943,4.0943,4.0943,0,4.0311,4.0414,4.0393,4.0473,4.0506,4.0452,4.0545,4.0571,4.0626,4.0649,4.0606,4.0736,4.0757,4.0881,4.0924,4.095,4.0972,4.0924,4.1113,4.1131,4.1148,4.1205,4.1228,4.095,4.0949,4.0948,4.0948,0,4.052,4.0592,4.0664,4.0716,4.0757,4.0844,4.0834,4.0878,4.0856,4.0857,4.0958,4.0981,4.104,4.1069,4.1049,4.1188,4.1163,4.1117,4.1038,4.1179,4.1233,4.1255,4.0959,4.0957,4.0955,4.0953,0,0,4.0756,4.0793,4.0819,4.0841,4.0877,4.0932,4.1016,4.1073,4.1109,4.1149,4.1215,4.1306,4.1262,4.1294,4.1277,4.1335,4.1471,4.1281,4.1282,4.1313,4.1622,4.1654,4.168,4.1446,4.145,4.1454,4.1617,0,4.0926,4.107,4.1051,4.1189,4.1253,4.1202,4.1274,4.1303,4.1305,4.1359,4.1362,4.1425,4.1365,4.1382,4.1438,4.1443,4.1532,4.1431,4.1506,4.1509,4.1495,4.1708,4.1743,4.1897,4.1638,4.1642,4.1645,0,4.1145,4.119,4.1333,4.1356,4.1383,4.1448,4.1496,4.155,4.1581,4.1578,4.1612,4.1583,4.1664,4.1585,4.1695,4.1626,4.1656,4.1662,4.1668,4.1672,4.1583,4.1715,4.1946,4.1967,4.1678,4.1675,4.1673,0,4.1298,4.1395,4.1492,4.1513,4.1543,4.1589,4.1604,4.163,4.1664,4.1707,4.1728,4.1781,4.1809,4.1849,4.1834,4.1779,4.1945,4.1866,4.1943,4.1943,4.1979,4.1976,4.2214,4.2003,4.2003,4.2002,4.2002,0,4.1488,4.1577,4.156,4.162,4.1717,4.1695,4.1791,4.1799,4.1823,4.1881,4.1841,4.1897,4.1875,4.1929,4.1919,4.2008,4.2023,4.2021,4.2016,4.2023,4.2022,4.204,4.2027,4.2008,4.2007,4.2006,4.2005,0,4.1675,4.1668,4.177,4.1789,4.1796,4.1867,4.1882,4.1937,4.1936,4.2011,4.2027,4.2024,4.2085,4.2075,4.2144,4.2136,4.2247,4.2231,4.2237,4.2232,4.2307,4.2299,4.2562,4.2594,4.2366,4.2368,4.237,0,4.1796,4.1863,4.1889,4.1925,4.1942,4.2002,4.2036,4.2016,4.2053,4.2091,4.2141,4.2198,4.2243,4.2343,4.2346,4.2397,4.238,4.2469,4.2387,4.239,4.2377,4.2372,4.2377,4.2484,4.2487,4.2489,4.2491,0,4.201,4.2002,4.2053,4.2102,4.2144,4.2182,4.2216,4.2248,4.223,4.2273,4.2334,4.2369,4.2437,4.2494,4.2541,4.2554,4.2519,4.2516,4.2536,4.2542,4.2541,4.2538,4.2277,4.251,4.2508,4.2507,4.2506,4.2505,4.2165,4.222,4.2246,4.2303,4.2326,4.2358,4.2409,4.2413,4.2464,4.2518,4.2503,4.2572,4.2598,4.2657,4.2676,4.2728,4.2695,4.2725,4.2732,4.2738,4.2745,4.2535,4.2737,4.2737,4.2736,4.2736,4.2735,0,4.2373,4.2386,4.2439,4.2487,4.2531,4.2494,4.2529,4.2568,4.2629,4.2657,4.2701,4.277,4.2823,4.2831,4.2881,4.2921,4.2906,4.2935,4.293,4.2933,4.2774,4.275,4.2946,4.2946,4.2946,4.2946,4.2946,4.2946,4.2486,4.2577,4.2572,4.2672,4.2685,4.2752,4.2774,4.2802,4.2823,4.2902,4.2946,4.2951,4.2969,4.302,4.3066,4.3067,4.3086,4.312,4.3114,4.2966,4.2944,4.2924,4.2901,4.3126,4.3126,4.3267,4.3269,4.327]},{"header":{"parameterUnit":"m.s-1","parameterCategory":1,"la1":30.2991,"la2":30.254,"lo1":-89.0895,"lo2":-89.0444,"dy":0.0017,"dx":0.0017,"nx":28,"ny":28,"refTime":"2024-06-09T03:00:00:Z","depth":0,"parameterNumber":3,"parameterNumberName":"V-component_of_WINDS"},"data":[0,0,0,0,0,0,0,0,0,0,0,0,0,0,0,0,0,0,0,0,0,0,0,0,0,0,0,0,0,0,0,0,0,0,0,0,0,0,0,0,0,0,0,0,0,0,0,0,0,0,0,0,0,0,0,0,0,0,1.4555,1.4555,0,1.4605,1.4605,1.4606,1.459,1.4589,1.4588,1.4587,1.4642,1.4645,1.4647,0,0,0,0,0,0,0,0,0,0,0,0,0,1.4448,1.445,1.4555,1.4555,1.4556,1.4604,1.4605,1.4606,1.459,1.4589,1.4587,1.4586,1.4641,1.4644,1.4647,0,0,0,0,0,0,0,0,0,0,0,0,0,1.4496,1.4451,1.4555,1.4554,1.4554,1.4604,1.4605,1.4606,1.459,1.4589,1.4587,1.4586,1.464,1.4644,1.4648,1.4703,0,0,1.4659,1.4661,0,0,0,0,0,0,0,0,1.4493,1.45,1.4553,1.4554,1.4554,1.4589,1.4588,1.4639,1.4591,1.4577,1.4587,1.4585,1.4626,1.4631,1.4644,1.4706,1.4708,1.4659,1.4662,1.4663,1.4664,0,0,0,0,0,0,0,1.449,1.4498,1.4575,1.4554,1.4555,1.4552,1.4557,1.4597,1.461,1.4578,1.4577,1.4583,1.4626,1.464,1.4645,1.4709,1.4659,1.4663,1.4665,1.4666,1.4816,1.4818,0,0,0,0,0,0,1.4486,1.4495,1.4573,1.4576,1.4519,1.4555,1.456,1.458,1.461,1.4612,1.4584,1.4582,1.4635,1.4641,1.4647,1.4713,1.4663,1.4667,1.4669,1.4815,1.4817,1.4819,0,0,0,0,0,0,1.4484,1.4493,1.4571,1.4535,1.4545,1.4558,1.458,1.4582,1.4596,1.4614,1.4617,1.4596,1.4634,1.4642,1.4688,1.4715,1.4668,1.4672,1.4813,1.4815,1.4818,1.4845,0,0,0,0,0,0,1.4481,1.4492,1.4513,1.4536,1.4547,1.4611,1.4582,1.4584,1.4602,1.4599,1.4626,1.4629,1.4633,1.4683,1.4692,1.4719,1.4675,1.481,1.4814,1.4817,1.4842,1.4849,1.4854,0,0,0,0,0,1.4477,1.452,1.4514,1.4524,1.4573,1.4612,1.4619,1.4622,1.4604,1.4625,1.4636,1.4628,1.471,1.4688,1.4698,1.4726,1.4809,1.4813,1.4817,1.484,1.4847,1.4854,0,0,0,0,0,0,1.4502,1.4523,1.4517,1.4569,1.4588,1.461,1.4637,1.463,1.4657,1.4654,1.4657,1.4663,1.4711,1.4723,1.4698,1.4781,1.4757,1.4763,1.4771,1.4778,1.4784,1.4781,1.4678,0,0,0,0,0,1.4513,1.4543,1.456,1.4604,1.4614,1.4623,1.4641,1.4641,1.4662,1.4671,1.4686,1.4709,1.4739,1.4759,1.4789,1.4843,1.4849,1.4868,1.4874,1.4878,1.4884,1.4913,1.4922,1.4832,1.4832,1.4832,0,0,1.4538,1.4553,1.4572,1.4609,1.4625,1.4656,1.4631,1.4665,1.4688,1.4677,1.4721,1.4733,1.4758,1.4808,1.4832,1.482,1.491,1.4884,1.4887,1.489,1.4918,1.4927,1.4934,1.4834,1.4834,1.4834,0,0,1.4598,1.4612,1.465,1.4665,1.4688,1.4694,1.4702,1.4724,1.4731,1.4775,1.4766,1.4794,1.4847,1.4865,1.4881,1.4944,1.4938,1.4954,1.4985,1.5014,1.5021,1.5027,1.5049,1.5057,1.4959,1.4959,1.4959,0,1.4626,1.4671,1.4671,1.4705,1.4721,1.471,1.4748,1.4763,1.4795,1.4807,1.4794,1.4858,1.4874,1.4928,1.4943,1.4957,1.4967,1.4951,1.5019,1.5026,1.5032,1.5053,1.5062,1.4961,1.4961,1.4961,1.496,0,1.4704,1.4736,1.4763,1.4792,1.4812,1.4848,1.4853,1.4873,1.487,1.4877,1.4922,1.494,1.4972,1.4985,1.4984,1.5038,1.503,1.5018,1.4995,1.5042,1.5062,1.507,1.4964,1.4963,1.4962,1.4962,0,0,1.4785,1.481,1.482,1.4832,1.4855,1.488,1.4915,1.4944,1.4961,1.4983,1.5013,1.5056,1.5044,1.5062,1.5063,1.5087,1.5136,1.5072,1.5072,1.5083,1.5197,1.5206,1.5216,1.5131,1.5132,1.5133,1.5194,0,1.4846,1.4907,1.4906,1.4962,1.4991,1.4979,1.5009,1.5027,1.5034,1.506,1.5068,1.5098,1.508,1.5091,1.5114,1.5125,1.5159,1.512,1.5159,1.5161,1.5154,1.5226,1.5237,1.5294,1.5202,1.5204,1.5205,0,1.4928,1.4949,1.5008,1.5025,1.5037,1.5064,1.509,1.5114,1.5134,1.5137,1.5156,1.5152,1.5188,1.5162,1.5212,1.5185,1.5201,1.5208,1.521,1.5215,1.5186,1.5233,1.5312,1.532,1.5217,1.5216,1.5215,0,1.498,1.5024,1.5064,1.5075,1.5096,1.5115,1.5125,1.5143,1.516,1.5183,1.5194,1.5221,1.5236,1.5258,1.5261,1.5242,1.5311,1.5286,1.5315,1.5315,1.5331,1.5331,1.5414,1.5341,1.534,1.534,1.534,0,1.505,1.5086,1.5088,1.5113,1.5153,1.5151,1.5191,1.5199,1.5214,1.5241,1.5233,1.5258,1.5261,1.5287,1.529,1.533,1.5338,1.5342,1.5342,1.5343,1.5342,1.5354,1.535,1.5342,1.5342,1.5342,1.5341,0,1.5116,1.5118,1.5161,1.5176,1.5181,1.5209,1.5223,1.5247,1.5251,1.5285,1.5293,1.5301,1.5332,1.5336,1.5373,1.5375,1.5423,1.5419,1.5416,1.5416,1.5445,1.5442,1.554,1.5552,1.547,1.5471,1.5471,0,1.516,1.5188,1.5204,1.5221,1.5231,1.5258,1.5274,1.5273,1.5291,1.5313,1.5335,1.5363,1.5386,1.5435,1.5445,1.5473,1.547,1.5502,1.5474,1.5473,1.547,1.5469,1.5471,1.5508,1.5509,1.5509,1.551,0,1.5239,1.5239,1.5262,1.5285,1.5304,1.5323,1.5341,1.5355,1.5356,1.5376,1.5406,1.5424,1.5459,1.5488,1.5514,1.5525,1.5518,1.5518,1.5527,1.5528,1.5525,1.5527,1.5431,1.5517,1.5516,1.5515,1.5515,1.5515,1.5296,1.5319,1.5334,1.536,1.5372,1.5388,1.5411,1.5417,1.5441,1.5469,1.5467,1.5499,1.5517,1.5551,1.5564,1.559,1.558,1.5592,1.5595,1.5598,1.5601,1.5519,1.5595,1.5594,1.5594,1.5594,1.5594,0,1.5375,1.5383,1.5406,1.543,1.545,1.5439,1.5457,1.5475,1.5503,1.5519,1.5541,1.5575,1.5602,1.5613,1.564,1.5658,1.5655,1.5665,1.5664,1.5667,1.5608,1.5598,1.5667,1.5667,1.5667,1.5667,1.5667,1.5667,1.5418,1.5456,1.5456,1.55,1.5508,1.5539,1.555,1.5565,1.5577,1.5614,1.5636,1.5642,1.5656,1.5683,1.5707,1.571,1.5721,1.5732,1.5733,1.5679,1.5671,1.5664,1.5655,1.5734,1.5734,1.5789,1.579,1.579]}]]